Wind_Speed
38 37 35 35 33 30 29 27 24 22 20 19 18 18 19 18 17 17 15 13 13 13 12 12 13 12 12 11 11 11 12 12 14 15 13 13 14 15 15 16 17 18 20
38 37 37 35 33 32 30 29 25 24 23 22 20 19 20 20 19 19 18 17 17 16 15 15 15 14 15 14 14 14 15 14 16 17 18 19 19 18 19 19 19 21 23
37 37 37 35 34 33 31 30 27 25 25 24 22 22 21 21 20 20 19 19 18 18 18 18 18 17 17 16 16 16 16 16 16 18 20 20 20 20 21 21 20 22 23
38 38 37 37 37 35 34 31 29 28 26 26 25 23 23 23 23 22 21 20 20 19 19 19 20 20 19 18 17 17 17 17 18 20 22 21 20 19 20 21 20 20 22
38 40 38 38 37 36 33 32 32 30 28 27 27 26 24 24 25 25 24 23 21 21 21 20 21 22 22 22 19 17 17 18 19 20 21 21 21 19 19 24 27 27 26
37 40 37 36 36 36 34 33 32 31 29 27 29 28 27 27 28 29 27 24 23 22 23 22 22 23 24 27 28 29 27 22 24 24 24 24 21 23 24 27 29 29 27
36 36 36 36 36 36 36 34 33 32 29 29 28 29 29 30 30 31 32 29 24 24 24 23 23 24 23 22 23 24 24 27 30 31 29 28 28 26 25 26 29 28 27
34 36 36 35 35 34 34 35 33 32 31 30 29 30 30 31 32 34 34 31 29 29 27 27 27 27 26 24 22 24 24 24 24 25 25 25 24 22 21 23 25 28 27
36 36 37 37 35 35 34 33 33 31 29 30 30 30 31 31 33 35 35 28 29 31 31 31 31 30 30 29 28 29 29 28 27 29 31 32 29 27 27 26 24 24 25
38 40 38 37 36 35 34 34 33 31 31 30 30 30 31 30 30 34 34 28 28 28 28 29 33 35 32 31 30 28 28 26 22 23 23 21 18 19 19 19 17 19 18
35 33 33 34 34 32 31 31 32 32 28 29 28 28 29 29 29 30 33 31 29 27 27 27 27 28 28 29 33 30 27 23 22 21 20 19 18 18 15 17 22 24 21
31 32 32 33 32 30 30 29 29 28 28 26 27 26 27 27 29 29 33 35 30 27 27 24 22 22 22 24 24 26 26 26 23 23 21 21 21 20 23 19 16 18 21
26 28 30 30 30 27 29 28 27 27 26 26 26 25 24 24 25 30 32 31 32 31 26 23 21 17 15 18 21 21 20 20 22 26 25 25 24 19 12 14 15 13 14
25 25 25 25 26 27 26 27 27 27 28 26 25 24 23 24 23 21 24 28 28 27 32 27 23 20 19 16 16 17 19 21 21 22 21 16 13 11 13 11 12 11 13
23 22 21 20 22 21 19 16 23 22 24 25 23 22 22 22 22 21 19 18 19 24 20 19 20 19 19 16 15 20 22 16 13 10 11 10 12 11 11 8 9 10 11
19 21 20 18 19 17 18 5 7 9 8 19 16 16 15 14 12 18 19 14 15 15 16 14 14 15 15 14 11 9 7 7 7 7 10 9 9 9 9 8 8 9 11
14 16 13 14 16 18 16 13 10 13 18 16 17 18 12 12 13 14 16 17 15 14 8 9 8 7 7 6 6 5 6 5 3 6 7 7 8 9 7 8 9 10 9
9 20 16 19 22 23 19 12 7 22 19 20 18 19 17 16 13 14 14 13 13 8 8 9 9 7 6 6 4 4 3 2 2 3 6 8 8 8 9 9 9 9 10
6 12 15 19 14 9 26 26 28 26 16 8 8 11 14 15 16 16 14 9 12 11 9 9 8 7 6 5 3 1 0 2 4 4 5 6 5 5 8 9 9 10 10
13 10 5 7 22 16 10 13 11 15 11 12 11 15 21 22 17 12 10 10 10 10 10 8 8 7 6 4 2 1 0 1 2 3 4 5 7 8 9 10 10 11 10
8 9 10 11 18 17 7 11 13 18 16 13 10 13 18 17 15 13 13 11 11 11 10 8 7 6 5 4 3 2 2 2 4 5 7 8 9 10 11 12 12 13 12
12 11 13 13 10 11 9 9 9 11 15 17 15 16 19 17 16 15 14 12 11 11 10 9 8 7 5 4 4 3 4 5 6 7 8 9 9 10 11 12 13 13 14
10 7 8 8 9 13 12 15 14 13 13 14 15 14 13 15 15 16 16 15 13 12 11 10 9 8 6 6 5 5 5 6 7 7 7 9 10 11 12 13 14 13 13
4 5 6 6 6 10 11 13 14 14 12 12 11 13 13 14 15 16 15 14 13 13 12 11 10 9 7 6 6 7 8 9 8 9 9 9 10 11 12 13 14 15 14
4 5 9 7 5 9 11 14 14 13 13 13 12 13 14 15 16 15 15 14 13 12 12 12 10 9 10 10 9 9 9 10 10 9 7 9 10 12 11 12 12 15 15
4 7 7 9 14 13 8 10 14 14 12 13 14 14 15 15 14 14 13 14 13 12 11 10 11 10 8 8 9 8 9 10 9 7 8 8 10 11 12 11 12 14 13
Wind_Direction
201 205 207 210 213 216 220 222 223 224 224 222 219 213 213 214 212 212 218 224 221 224 229 229 232 235 239 242 242 248 251 252 263 273 278 282 271 280 279 273 272 267 267
200 201 205 207 210 214 217 221 219 220 222 223 219 215 216 219 218 216 217 224 227 230 231 232 234 234 237 243 245 248 254 258 265 276 281 282 277 275 277 277 276 275 274
199 200 204 207 208 210 213 216 217 217 220 221 220 218 219 220 219 220 220 224 229 232 231 231 234 233 236 240 241 249 250 254 258 265 276 281 284 283 281 281 278 284 283
198 200 200 202 206 209 210 210 211 214 217 218 218 220 222 224 224 224 225 228 231 235 234 233 235 236 238 240 244 249 256 263 266 266 273 279 283 289 285 287 290 288 291
196 201 201 201 203 205 207 207 208 211 215 215 215 219 222 224 226 226 226 230 232 236 238 238 239 240 241 240 245 249 254 258 264 268 274 278 280 285 293 298 297 296 295
198 201 200 199 199 200 202 202 204 209 213 213 214 216 219 223 229 230 228 231 233 235 239 241 244 248 250 251 250 252 252 257 260 267 275 279 284 283 288 291 295 296 297
198 198 198 197 198 199 199 200 202 207 211 212 214 215 218 222 227 230 232 230 235 237 240 244 247 249 250 252 260 267 267 264 259 259 267 270 279 280 285 287 287 290 290
197 196 197 196 198 198 198 200 201 206 208 210 214 216 219 223 227 230 232 231 236 241 244 246 248 251 251 252 256 259 262 264 268 268 260 270 272 279 276 281 291 293 291
196 198 196 195 197 197 199 199 202 205 207 212 214 215 218 225 228 232 232 231 238 242 245 247 248 251 252 253 255 262 266 266 269 268 267 272 277 280 280 280 281 289 292
197 198 195 194 194 196 196 196 199 203 207 210 215 217 221 226 229 231 232 230 237 242 247 249 251 249 251 253 252 257 264 270 272 274 276 278 275 274 284 273 279 267 270
197 196 194 195 193 196 196 195 194 200 205 210 214 218 220 225 228 233 233 225 233 237 242 247 250 252 256 258 254 252 257 266 272 277 280 278 279 280 275 276 293 287 269
194 192 191 193 193 195 197 197 199 200 204 206 212 218 222 225 228 230 235 231 227 233 242 247 250 249 251 257 258 256 259 262 267 271 272 275 279 282 291 291 284 277 278
193 192 191 192 191 193 194 195 197 201 207 210 211 217 221 221 227 232 232 235 233 228 236 240 245 249 248 257 261 259 263 262 263 267 269 276 281 285 274 281 282 279 280
187 192 191 195 193 195 195 199 203 204 208 212 214 216 218 219 219 219 219 226 229 230 230 239 243 248 248 249 250 262 267 268 268 274 276 277 279 266 268 282 291 294 298
185 185 185 191 191 199 200 207 211 215 214 213 214 213 211 215 216 213 211 210 214 219 217 228 234 237 243 245 251 263 270 263 253 251 259 259 264 280 285 286 291 295 296
190 174 173 185 177 194 186 184 238 248 229 219 214 216 212 215 202 201 212 208 204 206 198 213 216 224 232 239 231 216 212 216 230 236 257 271 278 280 284 287 288 292 297
154 125 141 175 141 121 109 89 33 336 303 259 233 215 213 218 212 195 203 206 209 207 189 185 185 176 178 183 189 203 211 213 237 258 267 272 277 281 277 284 287 289 298
65 106 172 164 154 152 156 165 60 4 276 252 243 227 222 228 222 202 187 187 161 158 158 154 146 143 143 149 177 194 206 221 270 280 281 278 277 280 282 293 305 306 298
86 166 184 165 148 167 157 153 136 237 236 216 192 179 187 179 161 149 151 177 181 172 158 145 141 135 128 108 103 104 140 243 258 267 275 282 286 282 280 285 290 278 269
47 33 78 158 142 149 145 156 194 183 158 186 175 147 137 128 127 126 115 115 123 122 124 122 114 108 108 105 110 91 289 287 289 287 283 291 288 287 286 288 287 277 258
45 50 65 79 81 98 161 188 170 155 162 155 156 154 160 138 130 124 125 126 123 115 106 107 104 97 85 73 60 31 1 321 311 302 293 290 288 287 286 286 284 282 270
10 43 56 70 86 113 134 129 137 154 156 143 130 132 130 123 125 128 124 116 108 105 108 103 99 91 76 61 35 13 352 336 325 317 309 302 295 291 288 284 280 277 275
13 37 87 100 116 126 132 136 144 147 140 134 134 134 131 124 128 124 118 112 116 107 101 95 87 77 63 50 31 17 3 352 331 319 318 315 307 303 301 298 294 288 287
51 59 69 96 134 140 136 126 117 120 120 123 120 122 126 127 121 115 113 113 113 106 101 96 94 92 78 57 29 13 353 351 346 334 316 308 309 310 307 300 294 296 294
102 108 113 93 117 110 110 113 113 114 118 120 119 118 119 117 115 115 116 116 115 117 119 114 106 89 72 64 46 25 7 346 347 348 336 318 321 323 323 316 313 307 300
120 113 106 126 92 71 77 106 112 110 109 113 114 113 112 111 112 116 122 126 126 122 116 106 102 97 83 49 38 29 10 354 352 357 2 325 325 328 332 325 330 318 313
Height
790 797 804 810 816 822 827 831 835 838 840 842 845 848 851 854 857 859 861 863 865 866 867 868 869 870 870 869 871 871 870 870 868 865 864 863 863 862 861 859 857 856 854
779 787 794 801 808 815 820 824 829 832 835 838 840 843 846 849 852 854 857 858 860 862 863 864 865 866 866 867 867 868 867 867 866 864 863 861 859 857 855 854 853 851 848
771 778 786 793 800 805 811 816 822 826 829 832 836 838 841 843 846 849 851 853 855 857 858 859 860 861 862 862 863 863 863 863 863 861 858 856 854 852 850 848 847 844 841
761 769 776 783 790 796 801 808 814 818 822 826 830 833 836 838 840 843 846 848 849 851 853 854 855 856 856 857 859 859 859 859 857 855 852 849 848 846 844 843 841 837 834
750 758 765 772 779 787 793 799 805 810 813 818 822 826 830 832 834 837 840 842 844 846 847 848 849 850 851 852 853 853 854 853 851 848 846 844 841 840 838 836 834 830 826
739 746 755 764 771 777 784 790 796 802 806 810 814 818 822 824 826 829 833 836 838 840 841 842 843 844 844 845 846 846 848 847 846 845 841 839 838 838 834 832 828 826 817
732 741 748 754 761 768 775 782 787 793 799 803 807 811 813 816 818 822 826 830 832 833 835 836 836 836 837 839 839 839 839 838 838 838 836 835 833 833 831 828 823 820 817
727 734 740 747 754 761 767 772 779 784 790 794 799 803 806 807 810 814 818 822 825 826 827 829 830 830 831 832 833 833 832 832 831 829 827 827 827 827 826 823 819 814 812
719 725 731 738 746 752 758 764 771 777 782 786 790 793 796 798 801 804 810 815 817 817 818 820 821 821 822 824 825 825 824 823 824 822 821 820 819 819 818 818 815 812 802
709 713 722 730 736 743 749 755 761 768 772 777 781 785 787 790 794 796 801 807 808 809 810 810 811 812 814 816 817 817 816 816 816 815 814 812 812 812 812 810 810 807 804
704 712 719 725 729 737 744 749 753 759 764 769 773 777 779 782 786 788 792 796 798 800 800 801 802 802 803 806 808 810 810 812 811 810 808 808 807 807 806 805 802 801 798
699 705 711 718 724 732 739 744 749 754 758 762 767 769 772 775 777 779 782 785 790 792 792 793 795 795 797 798 800 801 803 805 806 805 803 802 802 801 801 799 796 796 794
697 702 707 713 719 725 732 738 743 748 751 755 758 761 763 765 768 769 771 775 780 785 787 788 789 790 792 793 794 796 798 799 798 797 796 796 795 795 794 795 792 791 790
692 699 704 711 716 720 727 732 737 739 743 745 748 750 753 756 758 761 764 768 772 775 779 782 785 786 787 788 789 790 792 792 791 791 791 790 790 791 789 788 788 787 786
688 693 698 706 713 721 726 729 732 735 737 739 741 744 746 748 750 755 758 762 765 768 774 777 779 780 782 783 783 784 785 786 786 785 788 787 787 786 786 786 785 784 783
686 688 690 698 706 714 721 729 730 733 734 735 736 740 743 744 746 750 755 758 762 765 769 771 772 774 775 777 778 780 782 783 784 785 785 784 784 784 783 783 782 782 780
684 679 688 700 703 710 717 724 730 737 740 740 739 738 742 745 746 747 751 756 760 763 764 767 769 770 772 774 777 779 780 781 782 782 783 782 781 781 781 779 779 778 777
679 677 701 706 701 704 713 721 717 713 746 745 740 740 740 744 745 746 750 754 758 761 763 765 767 769 771 774 777 777 778 779 781 782 782 780 779 778 778 777 777 778 778
695 703 703 699 697 704 706 707 700 725 737 742 740 740 739 741 742 745 750 753 755 760 763 765 767 769 771 773 776 777 778 779 780 780 780 779 778 778 777 777 777 777 777
694 694 691 696 694 714 708 712 719 723 731 739 742 740 739 741 743 748 751 754 759 762 764 767 768 770 772 774 776 777 778 779 779 779 778 778 777 777 776 775 774 773 772
702 703 701 699 688 682 713 721 722 726 731 738 742 739 738 738 743 747 753 758 761 762 765 768 770 772 774 776 777 777 777 777 778 778 777 776 775 774 773 772 771 770 769
705 702 700 700 704 707 721 724 727 731 736 738 740 739 738 740 744 751 754 758 760 763 764 768 770 773 775 777 777 778 778 777 777 776 775 774 773 772 771 769 767 765 763
711 711 711 714 718 722 725 726 733 736 736 738 740 741 743 744 749 751 752 756 759 763 765 768 772 775 777 778 779 779 779 778 776 774 773 772 771 770 769 767 765 762 760
714 718 716 720 723 725 728 729 728 732 736 740 741 743 747 751 751 752 754 757 761 764 766 770 773 776 778 781 782 782 780 777 774 774 772 771 769 766 765 764 762 760 757
716 719 720 728 731 726 727 727 730 735 739 743 748 750 751 751 752 754 758 761 764 768 769 771 774 778 779 779 779 779 778 777 775 773 771 770 768 766 763 762 760 758 755
714 717 722 728 723 721 732 735 734 738 745 749 750 753 754 756 760 762 764 765 767 769 772 774 775 777 779 780 779 778 778 778 777 774 771 769 766 764 762 759 756 756 753